www.pogodaiklimat.ru
ПОГОДА в Данбери
Время
(UTC), дата
08:18 11.12
08:27 11.12
08:53 11.12
09:29 11.12
09:49 11.12
09:53 11.12
10:01 11.12
10:20 11.12
10:53 11.12
11:53 11.12
12:04 11.12
12:53 11.12
12:55 11.12
13:14 11.12
13:53 11.12
14:53 11.12
15:53 11.12
16:53 11.12
17:53 11.12
18:53 11.12
19:53 11.12
20:53 11.12
21:53 11.12
22:53 11.12
23:53 11.12
00:53 11.12
01:53 11.12
02:53 11.12
03:53 11.12
04:53 12.12
05:53 12.12
06:53 12.12
07:53 12.12
08:53 12.12
09:53 12.12
10:53 12.12
11:53 12.12
12:53 12.12
13:53 12.12
14:53 12.12
15:53 12.12
16:53 12.12
17:53 12.12
18:53 12.12
19:53 12.12
20:53 12.12
21:53 12.12
22:53 12.12
Ветер
(напр.,м/с)
Видим. Явления Облачность Т
(С)
Тd
(С)
f
(%)
Тe
(С)
Тes
(С)
Комфортность P
(гПа)
Po
(гПа)
Тmin
(С)
Tmax
(С)
R
(мм)
R24
(мм)
S
(см)
СВ 4 2 км слабый снег, дымка ?/? -1.1 -2.8 88 -8 -8 1004.8
С 3 1 км слабый снег, дымка ?/? -1.1 -2.8 88 -7 -7 1005.5
СВ 4 1 км слабый снег, дымка ?/? -1.7 -2.8 92 -8 -8 1022.5 1005.5
СВ 3 2 км слабый снег, дымка 10/10 240 м -1.7 -2.8 92 -7 -7 1005.2
СВ 3 5 км слабый снег, дымка 10/10 240 м -2.0 -3.0 93 -8 -8 1005.8
СВ 3 8 км слабый снег, дымка 10/10 240 м -1.7 -3.3 89 -7 -7 1023.2 1006.2
С 4 14 км 10/10 300 м -1.7 -3.9 85 -8 -8 1006.2
С 3 16 км 10/5 300 м
[средняя]
-2.2 -4.4 85 -7 -7 1006.2
С 2 16 км 10/0 2850 м
[средняя]
-2.2 -5.0 81 -7 -7 1024.0 1006.8 -2.2 +1.1 13.0
С 2 14 км 10/5 1650 м
[средняя]
-2.2 -5.0 81 -7 -7 1025.1 1007.8
С 4 3 км слабый снег 10/8 840 м
[средняя]
-2.2 -5.6 77 -8 -8 1007.8
С 1 3 км слабый снег, дымка 10/10 420 м -2.8 -5.0 85 -6 -6 1025.6 1008.5
0 5 км слабый снег, дымка 10/10 420 м -2.8 -5.0 85 -4 -4 1008.2
0 16 км 5/5 300 м -2.8 -5.0 85 -4 -3 1008.5
0 16 км 5/5 1800 м -2.8 -4.4 89 -4 -3 1026.2 1009.2
нст 1 16 км 10/10 1800 м -1.7 -5.0 78 -5 -5 1025.7 1008.5
0 16 км 8/8 390 м -1.1 -4.4 78 -2 -1 1024.5 1007.2
ЮЗ 1 16 км 10/10 420 м -1.1 -4.4 78 -4 -4 1024.2 1006.8 -2.8 -1.1
ЮЗ 3 16 км 2/2 450 м -0.6 -4.4 75 -5 -3 1023.9 1006.5
ЮЗ 3 16 км 8/8 1500 м -0.6 -3.9 78 -5 -5 1024.2 1006.8
ЮЗ 2 16 км ясно -0.6 -3.3 82 -5 -4 1024.4 1007.2
0 16 км 2/2 660 м -1.1 -2.8 88 -2 -2 1025.1 1007.8
нст 1 16 км ясно -2.2 -3.9 88 -6 -6 1025.9 1008.5
ЮЗ 4 16 км ясно -1.1 -3.9 81 -7 -7 1026.6 1009.2 -2.8 0.0
З 3 16 км ясно -1.7 -5.6 75 -7 -7 1027.4 1010.2
З 4 16 км ясно -2.2 -6.7 71 -8 -8 1028.0 1010.5
З 4 16 км ясно -3.3 -8.3 68 -9 -9 1028.6 1011.2
З 4 16 км ясно -2.2 -9.4 58 -8 -8 1030.5 1013.1
З 3 16 км ясно -4.4 -8.9 71 -10 -10 1031.6 1014.1
нст 2 16 км ясно -3.9 -9.4 66 -8 -8 1033.1 1015.5 -7.2 -1.1
СЗ 4 16 км ясно -3.9 -11.7 55 -10 -10 1033.9 1016.5
0 16 км ясно -7.2 -11.7 70 -8 -8 1035.3 1017.8
0 16 км ясно -8.9 -11.1 84 -9 -9 1036.4 1018.8
0 16 км ясно -9.4 -11.1 87 -10 -10 1037.2 1019.5
0 16 км ясно -10.6 -12.2 88 -11 -11 1038.4 1020.5
0 16 км ясно -10.0 -11.1 92 -10 -10 1039.5 1021.8 -11.1 -3.3
0 16 км ясно -9.4 -11.1 87 -10 -10 1040.0 1022.1
ЮЗ 2 16 км ясно -6.1 -11.7 65 -11 -11 1040.4 1022.8
СЗ 2 16 км ясно -4.4 -12.2 54 -9 -8 1040.7 1023.1
0 16 км ясно -2.8 -11.1 53 -3 0 1040.9 1023.1
нст 3 16 км ясно -2.2 -11.7 48 -7 -4 1040.2 1022.5
СЗ 3 16 км ясно -1.1 -11.1 47 -5 -2 1039.7 1022.1 -11.1 -1.1
0 16 км ясно -1.1 -11.7 44 -1 +3 1039.1 1021.5
0 16 км ясно -1.1 -10.6 48 -2 +2 1038.9 1021.1
ЮВ 1 16 км ясно -1.7 -10.0 53 -4 -3 1039.2 1021.5
0 16 км ясно -3.3 -7.8 71 -4 -4 1039.6 1021.8
0 16 км ясно -4.4 -8.3 74 -5 -5 1039.8 1021.8
0 16 км ясно -5.0 -7.8 81 -6 -6 1039.6 1021.8 -5.0 -0.6
Местоположение метеостанции Danbury Municipal Airport: широта 41.3717 долгота -73.4844 высота над уровнем моря 139 м.
В архиве по умолчанию представлена погода в Данбери за последние 1-2 суток. Обновление информации о фактической погоде в базе происходит ежечасно! Архивные данные за месяц целиком и за предыдущие месяцы Вы можете получить, выбрав интересующий диапазон дат из раскрывающегося списка и нажав кнопку "Ввод!".
Внимание! Архив погоды МЕТАР в базе сайта по станциям, не включенным в климатический монитор, хранится не более 60 дней. Нет смысла пытаться выбрать более раннюю дату.
*Определитесь, кто Вы:
Внимание! Время в таблицах - всемирное. Для получения местного времени необходимо прибавить поправку, которая равна ч.
Смотрите также архив погоды в соседних городах и на ближайших метеорологических станциях:
Партнеры нашего сайта:      
Пояснения к столбцам:
  • Ветер - указаны скорость ветра в м/с - средняя за 10 мин, порывы в срок и между сроками (в фигурных скобках) и направление, откуда дует ветер: С - северный,
  • СВ - северо-восточный, В - восточный, ЮВ - юго-восточный, Ю - южный, ЮЗ - юго-западный, З - западный, СЗ - северо-западный.
  • Видимость - горизонтальная дальность видимости в метрах или километрах. При видимости от 1 до 10 км при отсутствии осадков обычно наблюдается дымка, при ухудшении видимости до 1 км и менее - туман. В сухую погоду видимость может ухудшаться дымом, пылью или мглою.
  • Явления - указаны атмосферные явления, наблюдавшиеся в срок или в последний час перед сроком; фигурными скобками обозначены явления, наблюдавшиеся между сроками (за 1-3 часа до срока); квадратными скобками обозначены град или гололедные отложения с указанием их диаметра в мм.
  • Облачность - указаны через наклонную черту общая и нижняя облачность в баллах и высота нижней границы облаков в метрах; квадратными скобками обозначены формы облаков: Ci - перистые, Cs - перисто-слоистые, Cc - перисто-кучевые, Ac - высококучевые, As - высокослоистые, Sc - слоисто-кучевые, Ns - слоисто-дождевые, Cu - кучевые, Cb - кучево-дождевые. Подробнее классификацию облаков см. в Атласе облаков (PDF).
  • T - Температура воздуха - температура, измеренная на высоте 2 м над землей.
  • Td - Температура точки росы - температура, при понижении до которой содержащийся в воздухе водяной пар достигнет насыщения.
  • f - Относительная влажность воздуха - влажноcть воздуха, измеренная на высоте 2 м над землей.
  • Te - Эффективная температура - температура, которую ощущает одетый по сезону человек в тени. Характеристика душности погоды. При расчете учитывается влияние влажности воздуха и скорости ветра на теплоощущения человека.
  • Tes - Эффективная температура на солнце - температура, которую ощущает человек, с поправкой на солнечный нагрев. Характеристика знойности погоды. Зависит от высоты солнца над горизонтом, облачности и скорости ветра. Ночью, в пасмурную погоду, а также при ветре 12 м/с и более поправка равна нулю.
  • P - Атмосферное давление - приведенное к уровню моря атмосферное давление.
  • Po - Атмосферное давление - измеренное на уровне метеостанции атмосферное давление.
  • Tmin - Минимальная температура - минимум температуры воздуха на высоте 2 м над землей.
  • Tmax - Максимальная температура - максимум температуры воздуха на высоте 2 м над землей.
  • R - Количество осадков - Количество выпавших осадков за период времени, мм. При наведении курсора мыши на число - период времени, за который выпало указанное количество осадков.
  • R24 - Количество осадков - Количество выпавших осадков за 24 часа, мм.
  • S - Снежный покров - Высота снежного покрова, см. При наведении курсора мыши на число - состояние снежного покрова и степень покрытия местности в баллах.